EXS98AP EGNM-GCTS

Flight info

Callsign EXS98AP
Flight time 4h 30m
Altitude 36000
Route POL Y70 KOLID L70 PENIL M144 BAGSO DCT WTD DCT MAPAG/M077F360 DCT TAMEL DCT 45N015W/M077F380 40N017W/M077F390 35N018W DCT IRKID/N0444F390 DCT ORTIS
Aircraft B738/M-SDFGHIJ1J3J4J7M3RWXY/LB1

Departure

Time 2026-05-07 14:06
Airport Leeds Bradford Airport (EGNM)

Arrival

Time 2026-05-07 18:36
Airport Tenerife Sur Airport (GCTS)
Time Latitude Longitude Altitude Speed Heading
2026-05-07 13:25 53.86875 -1.65482 664 ft 0 kts
2026-05-07 13:53 53.86874 -1.65482 664 ft 2 kts
2026-05-07 13:53 53.86854 -1.65481 664 ft 3 kts 342°
2026-05-07 13:53 53.86839 -1.65469 663 ft 3 kts 335°
2026-05-07 13:54 53.86823 -1.65461 662 ft 3 kts 25°
2026-05-07 13:54 53.86814 -1.65478 661 ft 3 kts 88°
2026-05-07 13:54 53.86814 -1.65501 663 ft 3 kts 91°
2026-05-07 13:54 53.86815 -1.65522 663 ft 0 kts 91°
2026-05-07 14:00 53.86815 -1.65521 663 ft 1 kts 91°
2026-05-07 14:00 53.86813 -1.65463 662 ft 9 kts 95°
2026-05-07 14:01 53.86771 -1.65414 660 ft 9 kts 185°
2026-05-07 14:01 53.86738 -1.65495 663 ft 9 kts 271°
2026-05-07 14:01 53.86739 -1.65603 664 ft 9 kts 271°
2026-05-07 14:01 53.86740 -1.65716 664 ft 10 kts 271°
2026-05-07 14:02 53.86743 -1.65873 667 ft 17 kts 272°
2026-05-07 14:02 53.86747 -1.66119 666 ft 23 kts 271°
2026-05-07 14:02 53.86766 -1.66323 667 ft 15 kts 307°
2026-05-07 14:02 53.86844 -1.66445 668 ft 17 kts 317°
2026-05-07 14:03 53.86930 -1.66578 670 ft 17 kts 318°
2026-05-07 14:03 53.87024 -1.66721 676 ft 19 kts 317°
2026-05-07 14:03 53.87121 -1.66872 681 ft 19 kts 317°
2026-05-07 14:03 53.87226 -1.66997 685 ft 19 kts 351°
2026-05-07 14:04 53.87352 -1.66991 688 ft 16 kts 358°
2026-05-07 14:04 53.87400 -1.67095 686 ft 11 kts 257°
2026-05-07 14:04 53.87354 -1.67183 684 ft 7 kts 216°
2026-05-07 14:04 53.87334 -1.67192 689 ft 3 kts 173°
2026-05-07 14:05 53.87309 -1.67161 681 ft 8 kts 138°
2026-05-07 14:05 53.87118 -1.66867 681 ft 74 kts 137°
2026-05-07 14:05 53.86556 -1.66003 666 ft 141 kts 137°
2026-05-07 14:05 53.85740 -1.64731 1023 ft 166 kts 137°
2026-05-07 14:06 53.84900 -1.63408 1961 ft 166 kts 141°
2026-05-07 14:06 53.84027 -1.62082 2720 ft 173 kts 142°
2026-05-07 14:06 53.82997 -1.60740 3030 ft 199 kts 155°
2026-05-07 14:06 53.81592 -1.60145 3318 ft 219 kts 183°
2026-05-07 14:07 53.80084 -1.60837 3666 ft 239 kts 210°
2026-05-07 14:07 53.78848 -1.62779 4304 ft 249 kts 237°
2026-05-07 14:07 53.78149 -1.65483 5201 ft 253 kts 249°
2026-05-07 14:07 53.77618 -1.68332 5913 ft 257 kts 258°
2026-05-07 14:08 53.77673 -1.71377 6615 ft 264 kts 277°
2026-05-07 14:08 53.78036 -1.74451 7269 ft 269 kts 279°
2026-05-07 14:08 53.78438 -1.77552 7966 ft 271 kts 279°
2026-05-07 14:08 53.78854 -1.80675 8634 ft 274 kts 279°
2026-05-07 14:09 53.79284 -1.83837 9259 ft 278 kts 280°
2026-05-07 14:09 53.79730 -1.87040 9916 ft 281 kts 278°
2026-05-07 14:09 53.79895 -1.90331 10375 ft 287 kts 265°
2026-05-07 14:09 53.79829 -1.93831 10526 ft 307 kts 265°
2026-05-07 14:10 53.79743 -1.97542 10686 ft 325 kts 264°
2026-05-07 14:10 53.79292 -2.01316 11058 ft 331 kts 246°
2026-05-07 14:10 53.78320 -2.04852 11757 ft 333 kts 241°
2026-05-07 14:10 53.77245 -2.08332 12513 ft 336 kts 240°
2026-05-07 14:11 53.76139 -2.11836 13235 ft 340 kts 240°
2026-05-07 14:11 53.75018 -2.15376 13923 ft 344 kts 240°
2026-05-07 14:11 53.73880 -2.18961 14539 ft 348 kts 240°
2026-05-07 14:11 53.72732 -2.22569 15195 ft 350 kts 240°
2026-05-07 14:12 53.71572 -2.26214 15815 ft 355 kts 241°
2026-05-07 14:12 53.70445 -2.29968 16283 ft 363 kts 241°
2026-05-07 14:12 53.69251 -2.33757 16871 ft 367 kts 240°
2026-05-07 14:12 53.68039 -2.37544 17558 ft 368 kts 240°
2026-05-07 14:13 53.66801 -2.41349 18179 ft 372 kts 240°
2026-05-07 14:13 53.65545 -2.45182 18696 ft 376 kts 240°
2026-05-07 14:13 53.64280 -2.49055 19225 ft 379 kts 241°
2026-05-07 14:13 53.63281 -2.53179 19763 ft 383 kts 252°
2026-05-07 14:14 53.62704 -2.57586 20269 ft 388 kts 260°
2026-05-07 14:14 53.62545 -2.62157 20760 ft 394 kts 267°
2026-05-07 14:14 53.62525 -2.66783 21286 ft 396 kts 268°
2026-05-07 14:14 53.62521 -2.71453 21772 ft 400 kts 268°
2026-05-07 14:15 53.62514 -2.76146 22234 ft 403 kts 268°
2026-05-07 14:15 53.62499 -2.80883 22686 ft 407 kts 267°
2026-05-07 14:15 53.62474 -2.85671 23141 ft 410 kts 267°
2026-05-07 14:15 53.62442 -2.90485 23603 ft 413 kts 267°
2026-05-07 14:16 53.62404 -2.95337 23975 ft 416 kts 267°
2026-05-07 14:16 53.62362 -3.00218 24338 ft 419 kts 266°
2026-05-07 14:16 53.62317 -3.05144 24687 ft 422 kts 266°
2026-05-07 14:16 53.62269 -3.10105 25035 ft 425 kts 266°
2026-05-07 14:17 53.62220 -3.15100 25413 ft 427 kts 266°
2026-05-07 14:17 53.62169 -3.20105 25788 ft 429 kts 266°
2026-05-07 14:17 53.62114 -3.25146 26118 ft 432 kts 266°
2026-05-07 14:17 53.62059 -3.30146 26427 ft 435 kts 266°
2026-05-07 14:18 53.62000 -3.35270 26742 ft 438 kts 266°
2026-05-07 14:18 53.61938 -3.40414 27055 ft 441 kts 266°
2026-05-07 14:18 53.61875 -3.45592 27371 ft 443 kts 266°
2026-05-07 14:18 53.61808 -3.50797 27670 ft 446 kts 266°
2026-05-07 14:19 53.61740 -3.56029 27958 ft 449 kts 266°
2026-05-07 14:19 53.61668 -3.61304 28249 ft 451 kts 266°
2026-05-07 14:19 53.61601 -3.66598 28567 ft 453 kts 267°
2026-05-07 14:19 53.61708 -3.71910 28919 ft 455 kts 271°
2026-05-07 14:20 53.61959 -3.77245 29210 ft 458 kts 272°
2026-05-07 14:20 53.62242 -3.82595 29526 ft 459 kts 272°
2026-05-07 14:20 53.62498 -3.87947 29919 ft 458 kts 271°
2026-05-07 14:20 53.62723 -3.93294 30289 ft 457 kts 271°
2026-05-07 14:21 53.62931 -3.98636 30599 ft 457 kts 271°
2026-05-07 14:21 53.63138 -4.03966 30895 ft 457 kts 271°
2026-05-07 14:21 53.63346 -4.09309 31204 ft 456 kts 271°
2026-05-07 14:21 53.63552 -4.14638 31513 ft 456 kts 271°
2026-05-07 14:22 53.63756 -4.19956 31869 ft 454 kts 270°
2026-05-07 14:22 53.63958 -4.25259 32263 ft 452 kts 270°
2026-05-07 14:22 53.64155 -4.30538 32559 ft 452 kts 270°
2026-05-07 14:22 53.64351 -4.35831 32803 ft 453 kts 270°
2026-05-07 14:23 53.64333 -4.41107 33031 ft 449 kts 260°
2026-05-07 14:23 53.63752 -4.46244 33328 ft 444 kts 251°
2026-05-07 14:23 53.62762 -4.51130 33644 ft 438 kts 242°
2026-05-07 14:23 53.61397 -4.55698 33909 ft 436 kts 238°
2026-05-07 14:24 53.59951 -4.60188 34125 ft 436 kts 238°
2026-05-07 14:24 53.58487 -4.64654 34332 ft 436 kts 237°
2026-05-07 14:24 53.57014 -4.69114 34597 ft 435 kts 238°
2026-05-07 14:24 53.55548 -4.73544 34896 ft 433 kts 238°
2026-05-07 14:25 53.54085 -4.77954 35143 ft 431 kts 238°
2026-05-07 14:25 53.52624 -4.82357 35357 ft 431 kts 238°
2026-05-07 14:25 53.51164 -4.86752 35544 ft 431 kts 238°
2026-05-07 14:25 53.49700 -4.91158 35732 ft 431 kts 238°
2026-05-07 14:26 53.48237 -4.95552 35935 ft 431 kts 238°
2026-05-07 14:26 53.45292 -5.04377 35982 ft 434 kts 238°
2026-05-07 14:27 53.42349 -5.13166 35977 ft 430 kts 238°
2026-05-07 14:27 53.39421 -5.21883 35989 ft 427 kts 238°
2026-05-07 14:28 53.36509 -5.30516 35983 ft 425 kts 238°
2026-05-07 14:28 53.33606 -5.39096 35981 ft 423 kts 238°
2026-05-07 14:29 53.30707 -5.47636 35982 ft 422 kts 238°
2026-05-07 14:29 53.27270 -5.55400 35974 ft 418 kts 221°
2026-05-07 14:30 53.22754 -5.61597 35979 ft 418 kts 215°
2026-05-07 14:30 53.18109 -5.67368 35979 ft 420 kts 215°
2026-05-07 14:31 53.13397 -5.73199 35970 ft 423 kts 215°
2026-05-07 14:31 53.08670 -5.79083 35964 ft 425 kts 216°
2026-05-07 14:32 53.03927 -5.84999 35973 ft 427 kts 216°
2026-05-07 14:32 52.99169 -5.90925 35969 ft 428 kts 216°
2026-05-07 14:33 52.94397 -5.96853 35968 ft 429 kts 216°
2026-05-07 14:33 52.89623 -6.02765 35967 ft 428 kts 216°
2026-05-07 14:34 52.84856 -6.08652 35968 ft 426 kts 216°
2026-05-07 14:34 52.80109 -6.14499 35961 ft 425 kts 216°
2026-05-07 14:35 52.75373 -6.20314 35967 ft 423 kts 216°
2026-05-07 14:35 52.70656 -6.26090 35961 ft 422 kts 216°
2026-05-07 14:36 52.65949 -6.31838 35968 ft 420 kts 216°
2026-05-07 14:36 52.61252 -6.37557 35970 ft 420 kts 216°
2026-05-07 14:37 52.57352 -6.42295 35960 ft 419 kts 216°
2026-05-07 14:37 52.49545 -6.51747 35976 ft 420 kts 216°
2026-05-07 14:38 52.45600 -6.56507 35974 ft 420 kts 216°
2026-05-07 14:38 52.40882 -6.62186 35966 ft 421 kts 216°
2026-05-07 14:39 52.36185 -6.67824 35977 ft 422 kts 216°
2026-05-07 14:39 52.31450 -6.73492 35973 ft 422 kts 216°
2026-05-07 14:40 52.26704 -6.79157 35989 ft 423 kts 216°
2026-05-07 14:40 52.21953 -6.84814 35991 ft 423 kts 216°
2026-05-07 14:41 52.17194 -6.90464 36004 ft 423 kts 216°
2026-05-07 14:41 52.12433 -6.96103 35993 ft 423 kts 216°
2026-05-07 14:42 52.07668 -7.01731 35993 ft 423 kts 216°
2026-05-07 14:42 52.02901 -7.07346 35980 ft 423 kts 216°
2026-05-07 14:43 51.98141 -7.12936 35984 ft 422 kts 216°
2026-05-07 14:43 51.93383 -7.18510 35989 ft 422 kts 216°
2026-05-07 14:44 51.88633 -7.24060 35985 ft 421 kts 216°
2026-05-07 14:44 51.83881 -7.29598 35988 ft 421 kts 216°
2026-05-07 14:45 51.79127 -7.35123 35984 ft 421 kts 215°
2026-05-07 14:45 51.74374 -7.40632 35994 ft 421 kts 215°
2026-05-07 14:46 51.69616 -7.46127 35991 ft 421 kts 215°
2026-05-07 14:46 51.64787 -7.51482 35996 ft 421 kts 214°
2026-05-07 14:47 51.59928 -7.56777 35994 ft 422 kts 214°
2026-05-07 14:47 51.55068 -7.62080 35992 ft 422 kts 214°
2026-05-07 14:48 51.50207 -7.67389 35999 ft 423 kts 214°
2026-05-07 14:48 51.45335 -7.72703 35998 ft 424 kts 214°
2026-05-07 14:49 51.40490 -7.77976 35999 ft 424 kts 214°
2026-05-07 14:49 51.35603 -7.83280 36000 ft 424 kts 214°
2026-05-07 14:50 51.30711 -7.88575 35990 ft 425 kts 214°
2026-05-07 14:50 51.25812 -7.93866 35996 ft 425 kts 214°
2026-05-07 14:51 51.20909 -7.99146 35999 ft 425 kts 214°
2026-05-07 14:51 51.16006 -8.04412 35997 ft 425 kts 214°
2026-05-07 14:52 51.11099 -8.09667 36004 ft 425 kts 214°
2026-05-07 14:52 51.06195 -8.14908 36003 ft 425 kts 214°
2026-05-07 14:53 51.01282 -8.20144 35997 ft 425 kts 214°
2026-05-07 14:53 50.96365 -8.25369 36005 ft 425 kts 214°
2026-05-07 14:54 50.91439 -8.30593 36003 ft 426 kts 214°
2026-05-07 14:54 50.86508 -8.35806 36004 ft 426 kts 214°
2026-05-07 14:55 50.81567 -8.41018 36006 ft 427 kts 214°
2026-05-07 14:55 50.76620 -8.46221 36005 ft 427 kts 214°
2026-05-07 14:56 50.71665 -8.51421 36005 ft 428 kts 214°
2026-05-07 14:56 50.66699 -8.56618 36006 ft 428 kts 214°
2026-05-07 14:57 50.61732 -8.61803 36006 ft 429 kts 214°
2026-05-07 14:57 50.56751 -8.66989 36006 ft 429 kts 214°
2026-05-07 14:58 50.51767 -8.72166 36000 ft 429 kts 214°
2026-05-07 14:58 50.46780 -8.77332 36007 ft 430 kts 214°
2026-05-07 14:59 50.41786 -8.82491 36004 ft 430 kts 214°
2026-05-07 14:59 50.36786 -8.87644 36004 ft 430 kts 214°
2026-05-07 15:00 50.31776 -8.92793 36011 ft 431 kts 214°
2026-05-07 15:00 50.26755 -8.97942 36005 ft 432 kts 214°
2026-05-07 15:01 50.21727 -9.03084 36010 ft 432 kts 214°
2026-05-07 15:01 50.16685 -9.08227 36005 ft 433 kts 214°
2026-05-07 15:02 50.11631 -9.13368 36008 ft 434 kts 214°
2026-05-07 15:02 50.06610 -9.18464 36003 ft 434 kts 214°
2026-05-07 15:03 50.01546 -9.23590 36003 ft 435 kts 214°
2026-05-07 15:03 49.96471 -9.28715 36007 ft 435 kts 214°
2026-05-07 15:04 49.91393 -9.33828 36009 ft 435 kts 214°
2026-05-07 15:04 49.86307 -9.38937 36008 ft 436 kts 214°
2026-05-07 15:05 49.81212 -9.44042 36008 ft 436 kts 214°
2026-05-07 15:05 49.76109 -9.49142 36006 ft 436 kts 214°
2026-05-07 15:06 49.71007 -9.54228 36008 ft 436 kts 214°
2026-05-07 15:06 49.65904 -9.59303 36008 ft 436 kts 214°
2026-05-07 15:07 49.60797 -9.64368 36007 ft 437 kts 214°
2026-05-07 15:07 49.55682 -9.69428 36006 ft 437 kts 214°
2026-05-07 15:08 49.50571 -9.74472 36008 ft 437 kts 214°
2026-05-07 15:08 49.45456 -9.79506 36005 ft 437 kts 214°
2026-05-07 15:09 49.40337 -9.84533 36003 ft 436 kts 214°
2026-05-07 15:09 49.35219 -9.89546 36000 ft 436 kts 214°
2026-05-07 15:10 49.30099 -9.94548 36007 ft 436 kts 214°
2026-05-07 15:10 49.24976 -9.99541 36006 ft 437 kts 214°
2026-05-07 15:11 49.19879 -10.04496 36004 ft 437 kts 214°
2026-05-07 15:11 49.14749 -10.09471 36006 ft 437 kts 214°
2026-05-07 15:12 49.09614 -10.14439 36003 ft 437 kts 214°
2026-05-07 15:12 49.04478 -10.19394 35995 ft 437 kts 215°
2026-05-07 15:13 48.99339 -10.24341 36000 ft 437 kts 215°
2026-05-07 15:13 48.94204 -10.29272 36006 ft 436 kts 215°
2026-05-07 15:14 48.89072 -10.34187 36001 ft 436 kts 215°
2026-05-07 15:14 48.83937 -10.39094 36003 ft 436 kts 215°
2026-05-07 15:15 48.78805 -10.43988 36000 ft 435 kts 215°
2026-05-07 15:15 48.73678 -10.48867 35998 ft 435 kts 216°
2026-05-07 15:16 48.68967 -10.54496 36007 ft 431 kts 224°
2026-05-07 15:16 48.64528 -10.60490 36006 ft 430 kts 225°
2026-05-07 15:17 48.60057 -10.66501 35996 ft 430 kts 224°
2026-05-07 15:17 48.55562 -10.72463 36003 ft 430 kts 224°
2026-05-07 15:18 48.51056 -10.78389 35995 ft 429 kts 224°
2026-05-07 15:18 48.46547 -10.84297 36000 ft 429 kts 224°
2026-05-07 15:19 48.42036 -10.90192 36002 ft 429 kts 224°
2026-05-07 15:19 48.37533 -10.96065 35994 ft 428 kts 224°
2026-05-07 15:20 48.33029 -11.01926 35996 ft 428 kts 224°
2026-05-07 15:20 48.28526 -11.07770 35998 ft 428 kts 224°
2026-05-07 15:21 48.24025 -11.13597 36000 ft 427 kts 224°
2026-05-07 15:21 48.19525 -11.19409 35985 ft 427 kts 224°
2026-05-07 15:22 48.15029 -11.25201 35992 ft 426 kts 224°
2026-05-07 15:22 48.10569 -11.30935 35994 ft 425 kts 224°
2026-05-07 15:23 48.06085 -11.36685 35992 ft 424 kts 224°
2026-05-07 15:23 48.01606 -11.42416 35996 ft 423 kts 224°
2026-05-07 15:24 47.97135 -11.48123 35996 ft 423 kts 224°
2026-05-07 15:24 47.92664 -11.53816 35999 ft 422 kts 224°
2026-05-07 15:25 47.88205 -11.59480 35991 ft 421 kts 224°
2026-05-07 15:25 47.83748 -11.65128 35979 ft 420 kts 224°
2026-05-07 15:26 47.79298 -11.70754 35992 ft 419 kts 224°
2026-05-07 15:26 47.75608 -11.75410 35995 ft 419 kts 224°
2026-05-07 15:27 47.71166 -11.81005 35994 ft 418 kts 224°
2026-05-07 15:27 47.66728 -11.86580 35996 ft 418 kts 224°
2026-05-07 15:28 47.62292 -11.92139 35994 ft 417 kts 224°
2026-05-07 15:28 47.57859 -11.97680 35990 ft 416 kts 224°
2026-05-07 15:29 47.53433 -12.03202 35988 ft 416 kts 224°
2026-05-07 15:29 47.49009 -12.08709 35996 ft 415 kts 224°
2026-05-07 15:30 47.44589 -12.14198 35995 ft 415 kts 224°
2026-05-07 15:30 47.40172 -12.19670 35997 ft 414 kts 223°
2026-05-07 15:31 47.35759 -12.25125 35992 ft 414 kts 223°
2026-05-07 15:31 47.31350 -12.30563 35993 ft 413 kts 223°
2026-05-07 15:32 47.26944 -12.35985 35991 ft 413 kts 223°
2026-05-07 15:32 47.22570 -12.41356 35991 ft 412 kts 223°
2026-05-07 15:33 47.18167 -12.46751 35992 ft 412 kts 223°
2026-05-07 15:33 47.13763 -12.52134 35991 ft 412 kts 223°
2026-05-07 15:34 47.09357 -12.57509 35976 ft 412 kts 223°
2026-05-07 15:34 47.04950 -12.62871 35987 ft 411 kts 222°
2026-05-07 15:35 47.00543 -12.68223 35989 ft 411 kts 222°
2026-05-07 15:35 46.96138 -12.73560 35989 ft 411 kts 222°
2026-05-07 15:36 46.91728 -12.78890 35988 ft 411 kts 222°
2026-05-07 15:36 46.87311 -12.84218 35985 ft 412 kts 222°
2026-05-07 15:37 46.82892 -12.89537 35981 ft 411 kts 222°
2026-05-07 15:37 46.78473 -12.94843 35990 ft 411 kts 222°
2026-05-07 15:38 46.74048 -13.00147 35983 ft 412 kts 222°
2026-05-07 15:38 46.69618 -13.05444 35985 ft 412 kts 222°
2026-05-07 15:39 46.65186 -13.10732 35987 ft 412 kts 221°
2026-05-07 15:39 46.60751 -13.16011 35974 ft 412 kts 221°
2026-05-07 15:40 46.56316 -13.21280 35983 ft 412 kts 221°
2026-05-07 15:40 46.51878 -13.26540 35983 ft 412 kts 221°
2026-05-07 15:41 46.47435 -13.31795 35984 ft 412 kts 221°
2026-05-07 15:41 46.42992 -13.37040 35974 ft 412 kts 221°
2026-05-07 15:42 46.38545 -13.42276 35970 ft 412 kts 221°
2026-05-07 15:42 46.34091 -13.47510 35982 ft 412 kts 221°
2026-05-07 15:43 46.29670 -13.52692 35979 ft 412 kts 221°
2026-05-07 15:43 46.25187 -13.57939 35979 ft 412 kts 221°
2026-05-07 15:44 46.20761 -13.63107 35981 ft 412 kts 221°
2026-05-07 15:44 46.16303 -13.68299 35989 ft 412 kts 220°
2026-05-07 15:45 46.11849 -13.73475 35976 ft 411 kts 220°
2026-05-07 15:45 46.07397 -13.78640 35976 ft 410 kts 220°
2026-05-07 15:46 46.00733 -13.86349 35977 ft 409 kts 220°
2026-05-07 15:47 45.96298 -13.91467 35979 ft 409 kts 220°
2026-05-07 15:47 45.91863 -13.96574 35978 ft 408 kts 220°
2026-05-07 15:48 45.87432 -14.01664 35976 ft 408 kts 220°
2026-05-07 15:48 45.83010 -14.06734 35974 ft 407 kts 220°
2026-05-07 15:49 45.78589 -14.11793 35976 ft 406 kts 220°
2026-05-07 15:49 45.74173 -14.16835 35972 ft 406 kts 220°
2026-05-07 15:50 45.69758 -14.21865 35973 ft 406 kts 219°
2026-05-07 15:50 45.65344 -14.26884 35969 ft 405 kts 219°
2026-05-07 15:51 45.60928 -14.31895 35966 ft 405 kts 219°
2026-05-07 15:51 45.56515 -14.36892 35966 ft 405 kts 219°
2026-05-07 15:52 45.52101 -14.41880 35968 ft 405 kts 219°
2026-05-07 15:52 45.47713 -14.46829 35964 ft 405 kts 219°
2026-05-07 15:53 45.43267 -14.51832 35960 ft 405 kts 218°
2026-05-07 15:53 45.38876 -14.56765 35962 ft 405 kts 218°
2026-05-07 15:54 45.34456 -14.61718 35966 ft 405 kts 218°
2026-05-07 15:54 45.30030 -14.66667 35963 ft 405 kts 218°
2026-05-07 15:55 45.25599 -14.71614 35963 ft 405 kts 218°
2026-05-07 15:55 45.21161 -14.76558 35962 ft 406 kts 218°
2026-05-07 15:56 45.16716 -14.81500 35956 ft 406 kts 217°
2026-05-07 15:56 45.12265 -14.86440 35959 ft 407 kts 217°
2026-05-07 15:57 45.07806 -14.91379 35955 ft 407 kts 217°
2026-05-07 15:57 45.03338 -14.96316 35954 ft 408 kts 217°
2026-05-07 15:58 44.98551 -15.00562 35957 ft 407 kts 204°
2026-05-07 15:58 44.93164 -15.03062 35949 ft 408 kts 198°
2026-05-07 15:59 44.87730 -15.05364 35953 ft 408 kts 197°
2026-05-07 15:59 44.82290 -15.07689 35951 ft 408 kts 197°
2026-05-07 16:00 44.76856 -15.10026 35950 ft 408 kts 197°
2026-05-07 16:00 44.71424 -15.12368 35950 ft 408 kts 197°
2026-05-07 16:01 44.65991 -15.14708 35948 ft 408 kts 197°
2026-05-07 16:01 44.60557 -15.17043 35945 ft 409 kts 197°
2026-05-07 16:02 44.55119 -15.19376 35938 ft 409 kts 197°
2026-05-07 16:02 44.49711 -15.21691 35948 ft 409 kts 197°
2026-05-07 16:03 44.44270 -15.24015 35943 ft 409 kts 197°
2026-05-07 16:03 44.38832 -15.26333 35939 ft 408 kts 197°
2026-05-07 16:04 44.33401 -15.28644 35927 ft 408 kts 197°
2026-05-07 16:04 44.27980 -15.30947 35937 ft 407 kts 197°
2026-05-07 16:05 44.22564 -15.33242 35939 ft 407 kts 197°
2026-05-07 16:05 44.17155 -15.35531 35937 ft 406 kts 197°
2026-05-07 16:06 44.11746 -15.37815 35933 ft 406 kts 197°
2026-05-07 16:06 44.06339 -15.40094 35936 ft 406 kts 197°
2026-05-07 16:07 44.00931 -15.42368 35930 ft 406 kts 197°
2026-05-07 16:07 43.95524 -15.44638 35929 ft 406 kts 197°
2026-05-07 16:08 43.90145 -15.46893 35929 ft 407 kts 197°
2026-05-07 16:08 43.84725 -15.49160 35934 ft 407 kts 197°
2026-05-07 16:09 43.79297 -15.51426 35927 ft 408 kts 197°
2026-05-07 16:09 43.73863 -15.53690 35926 ft 408 kts 197°
2026-05-07 16:10 43.68427 -15.55950 35923 ft 408 kts 197°
2026-05-07 16:10 43.62984 -15.58209 35923 ft 408 kts 197°
2026-05-07 16:11 43.57543 -15.60463 35926 ft 408 kts 197°
2026-05-07 16:11 43.52103 -15.62713 35923 ft 408 kts 197°
2026-05-07 16:12 43.46665 -15.64958 35938 ft 408 kts 197°
2026-05-07 16:12 43.41235 -15.67195 35921 ft 407 kts 197°
2026-05-07 16:13 43.35816 -15.69423 35918 ft 406 kts 197°
2026-05-07 16:13 43.30416 -15.71640 35927 ft 404 kts 197°
2026-05-07 16:14 43.25034 -15.73845 35916 ft 403 kts 197°
2026-05-07 16:14 43.19677 -15.76035 35914 ft 401 kts 197°
2026-05-07 16:15 43.14348 -15.78211 35920 ft 399 kts 197°
2026-05-07 16:15 43.09036 -15.80375 35917 ft 397 kts 197°
2026-05-07 16:16 43.04635 -15.82165 35909 ft 397 kts 197°
2026-05-07 16:16 42.99350 -15.84311 35912 ft 396 kts 197°
2026-05-07 16:17 42.94067 -15.86453 35910 ft 396 kts 197°
2026-05-07 16:17 42.88787 -15.88589 35913 ft 396 kts 196°
2026-05-07 16:18 42.83504 -15.90723 35907 ft 396 kts 196°
2026-05-07 16:18 42.78215 -15.92854 35908 ft 397 kts 196°
2026-05-07 16:19 42.72917 -15.94988 35909 ft 397 kts 196°
2026-05-07 16:19 42.67616 -15.97118 35908 ft 398 kts 196°
2026-05-07 16:20 42.62303 -15.99249 35908 ft 398 kts 196°
2026-05-07 16:20 42.57017 -16.01366 35913 ft 399 kts 195°
2026-05-07 16:21 42.51690 -16.03494 35904 ft 399 kts 195°
2026-05-07 16:21 42.46372 -16.05616 35904 ft 398 kts 195°
2026-05-07 16:22 42.41065 -16.07728 35903 ft 397 kts 195°
2026-05-07 16:22 42.35769 -16.09834 35904 ft 396 kts 195°
2026-05-07 16:23 42.30479 -16.11932 35901 ft 396 kts 195°
2026-05-07 16:23 42.25197 -16.14025 35901 ft 395 kts 195°
2026-05-07 16:24 42.19923 -16.16111 35904 ft 395 kts 195°
2026-05-07 16:24 42.14656 -16.18190 35904 ft 394 kts 195°
2026-05-07 16:25 42.09391 -16.20264 35900 ft 394 kts 195°
2026-05-07 16:25 42.04129 -16.22334 35894 ft 394 kts 195°
2026-05-07 16:26 41.98864 -16.24402 35900 ft 394 kts 195°
2026-05-07 16:26 41.93589 -16.26469 35896 ft 395 kts 195°
2026-05-07 16:27 41.88314 -16.28533 35897 ft 395 kts 195°
2026-05-07 16:27 41.83029 -16.30597 35881 ft 396 kts 195°
2026-05-07 16:28 41.77734 -16.32663 35900 ft 397 kts 195°
2026-05-07 16:28 41.72456 -16.34717 35898 ft 398 kts 195°
2026-05-07 16:29 41.67112 -16.36794 35897 ft 400 kts 195°
2026-05-07 16:29 41.61751 -16.38874 35886 ft 402 kts 195°
2026-05-07 16:30 41.56372 -16.40958 35889 ft 403 kts 195°
2026-05-07 16:30 41.50987 -16.43040 35890 ft 403 kts 195°
2026-05-07 16:31 41.45599 -16.45120 35889 ft 403 kts 195°
2026-05-07 16:31 41.40217 -16.47194 35884 ft 402 kts 195°
2026-05-07 16:32 41.34838 -16.49263 35882 ft 402 kts 195°
2026-05-07 16:32 41.29466 -16.51325 35880 ft 401 kts 195°
2026-05-07 16:33 41.24106 -16.53380 35885 ft 401 kts 195°
2026-05-07 16:33 41.18750 -16.55429 35877 ft 400 kts 195°
2026-05-07 16:34 41.13399 -16.57473 35881 ft 400 kts 195°
2026-05-07 16:34 41.08061 -16.59508 35884 ft 399 kts 195°
2026-05-07 16:35 41.02732 -16.61537 35879 ft 398 kts 195°
2026-05-07 16:35 40.97405 -16.63562 35878 ft 398 kts 195°
2026-05-07 16:36 40.92081 -16.65582 35876 ft 398 kts 195°
2026-05-07 16:36 40.86761 -16.67598 35880 ft 398 kts 195°
2026-05-07 16:37 40.81444 -16.69608 35877 ft 397 kts 195°
2026-05-07 16:37 40.76120 -16.71618 35884 ft 399 kts 195°
2026-05-07 16:38 40.70777 -16.73632 35880 ft 400 kts 195°
2026-05-07 16:38 40.65409 -16.75652 35880 ft 402 kts 195°
2026-05-07 16:39 40.60022 -16.77675 35874 ft 403 kts 195°
2026-05-07 16:39 40.54612 -16.79704 35873 ft 405 kts 195°
2026-05-07 16:40 40.49185 -16.81737 35874 ft 406 kts 195°
2026-05-07 16:40 40.43745 -16.83770 35871 ft 407 kts 195°
2026-05-07 16:41 40.38298 -16.85802 35870 ft 407 kts 195°
2026-05-07 16:41 40.32888 -16.87818 35870 ft 407 kts 195°
2026-05-07 16:42 40.27448 -16.89841 35867 ft 406 kts 195°
2026-05-07 16:42 40.22019 -16.91857 35863 ft 405 kts 195°
2026-05-07 16:43 40.16598 -16.93866 35861 ft 405 kts 195°
2026-05-07 16:43 40.11180 -16.95872 35866 ft 405 kts 195°
2026-05-07 16:44 40.05755 -16.97876 35856 ft 405 kts 196°
2026-05-07 16:44 40.00340 -16.99868 35858 ft 404 kts 195°
2026-05-07 16:45 39.94829 -17.01247 35867 ft 403 kts 189°
2026-05-07 16:45 39.89283 -17.02367 35861 ft 403 kts 189°
2026-05-07 16:46 39.83739 -17.03498 35858 ft 403 kts 190°
2026-05-07 16:46 39.78199 -17.04658 35865 ft 404 kts 190°
2026-05-07 16:47 39.72640 -17.05836 35863 ft 406 kts 190°
2026-05-07 16:47 39.67055 -17.07023 35865 ft 408 kts 190°
2026-05-07 16:48 39.61441 -17.08214 35859 ft 410 kts 191°
2026-05-07 16:48 39.55790 -17.09411 35862 ft 412 kts 191°
2026-05-07 16:49 39.50116 -17.10610 35860 ft 414 kts 191°
2026-05-07 16:49 39.44457 -17.11803 35859 ft 415 kts 191°
2026-05-07 16:50 39.38748 -17.13006 35859 ft 416 kts 191°
2026-05-07 16:50 39.33031 -17.14209 35858 ft 416 kts 191°
2026-05-07 16:51 39.27319 -17.15409 35855 ft 416 kts 190°
2026-05-07 16:51 39.21620 -17.16603 35855 ft 415 kts 190°
2026-05-07 16:52 39.15930 -17.17794 35852 ft 414 kts 191°
2026-05-07 16:52 39.10252 -17.18981 35855 ft 413 kts 191°
2026-05-07 16:53 39.04590 -17.20162 35850 ft 412 kts 191°
2026-05-07 16:53 38.98934 -17.21340 35852 ft 411 kts 191°
2026-05-07 16:54 38.93290 -17.22513 35846 ft 411 kts 191°
2026-05-07 16:54 38.87644 -17.23685 35851 ft 411 kts 191°
2026-05-07 16:55 38.81995 -17.24856 35855 ft 412 kts 191°
2026-05-07 16:55 38.76334 -17.26028 35851 ft 412 kts 191°
2026-05-07 16:56 38.70662 -17.27200 35847 ft 413 kts 191°
2026-05-07 16:56 38.62170 -17.28951 35857 ft 415 kts 191°
2026-05-07 16:57 38.56456 -17.30127 35860 ft 417 kts 191°
2026-05-07 16:57 38.50726 -17.31305 35857 ft 417 kts 191°
2026-05-07 16:58 38.44988 -17.32482 35857 ft 418 kts 191°
2026-05-07 16:58 38.39244 -17.33658 35851 ft 418 kts 191°
2026-05-07 16:59 38.33492 -17.34833 35849 ft 419 kts 191°
2026-05-07 16:59 38.27734 -17.36009 35853 ft 419 kts 191°
2026-05-07 17:00 38.21975 -17.37182 35852 ft 419 kts 191°
2026-05-07 17:00 38.16247 -17.38346 36086 ft 415 kts 192°
2026-05-07 17:01 38.13389 -17.38927 36220 ft 417 kts 192°
2026-05-07 17:01 38.10509 -17.39514 36255 ft 422 kts 192°
2026-05-07 17:01 38.04649 -17.40706 36389 ft 430 kts 192°
2026-05-07 17:02 38.01694 -17.41304 36581 ft 430 kts 192°
2026-05-07 17:02 37.98743 -17.41900 36831 ft 429 kts 192°
2026-05-07 17:02 37.95793 -17.42495 37064 ft 429 kts 192°
2026-05-07 17:02 37.92849 -17.43089 37250 ft 429 kts 192°
2026-05-07 17:03 37.89898 -17.43685 37447 ft 429 kts 192°
2026-05-07 17:03 37.86948 -17.44279 37655 ft 429 kts 192°
2026-05-07 17:03 37.84000 -17.44873 37837 ft 429 kts 192°
2026-05-07 17:03 37.81043 -17.45469 37842 ft 432 kts 192°
2026-05-07 17:04 37.76111 -17.46462 37851 ft 431 kts 192°
2026-05-07 17:04 37.70203 -17.47648 37850 ft 428 kts 192°
2026-05-07 17:05 37.64328 -17.48826 37855 ft 426 kts 193°
2026-05-07 17:05 37.58480 -17.49997 37852 ft 425 kts 193°
2026-05-07 17:06 37.52648 -17.51163 37850 ft 424 kts 193°
2026-05-07 17:06 37.46817 -17.52328 37865 ft 424 kts 193°
2026-05-07 17:07 37.40982 -17.53492 37866 ft 425 kts 193°
2026-05-07 17:07 37.35125 -17.54658 37864 ft 427 kts 193°
2026-05-07 17:08 37.29248 -17.55826 37857 ft 428 kts 193°
2026-05-07 17:08 37.23351 -17.56996 37864 ft 430 kts 193°
2026-05-07 17:09 37.17433 -17.58168 37861 ft 431 kts 193°
2026-05-07 17:09 37.11497 -17.59341 37870 ft 432 kts 193°
2026-05-07 17:10 37.05546 -17.60516 37866 ft 433 kts 193°
2026-05-07 17:10 36.99588 -17.61690 37866 ft 433 kts 193°
2026-05-07 17:11 36.93632 -17.62861 37864 ft 433 kts 193°
2026-05-07 17:11 36.87690 -17.64028 37865 ft 432 kts 193°
2026-05-07 17:12 36.81751 -17.65194 37860 ft 431 kts 193°
2026-05-07 17:12 36.75830 -17.66355 37867 ft 430 kts 193°
2026-05-07 17:13 36.69925 -17.67510 37866 ft 429 kts 193°
2026-05-07 17:13 36.64033 -17.68660 37869 ft 428 kts 193°
2026-05-07 17:14 36.58143 -17.69809 37858 ft 428 kts 193°
2026-05-07 17:14 36.52255 -17.70955 37875 ft 428 kts 193°
2026-05-07 17:15 36.46418 -17.72087 37880 ft 427 kts 193°
2026-05-07 17:15 36.40538 -17.73229 37880 ft 428 kts 193°
2026-05-07 17:16 36.34659 -17.74370 37873 ft 427 kts 194°
2026-05-07 17:16 36.28774 -17.75509 37871 ft 428 kts 194°
2026-05-07 17:17 36.22877 -17.76648 37886 ft 430 kts 194°
2026-05-07 17:17 36.16942 -17.77792 37894 ft 433 kts 194°
2026-05-07 17:18 36.10983 -17.78941 37869 ft 434 kts 194°
2026-05-07 17:18 36.05007 -17.80091 37891 ft 435 kts 194°
2026-05-07 17:19 35.99017 -17.81240 37890 ft 436 kts 194°
2026-05-07 17:19 35.93009 -17.82390 37891 ft 437 kts 194°
2026-05-07 17:20 35.86987 -17.83543 37869 ft 438 kts 194°
2026-05-07 17:20 35.80958 -17.84694 37889 ft 438 kts 194°
2026-05-07 17:21 35.74934 -17.85845 37899 ft 438 kts 194°
2026-05-07 17:21 35.68905 -17.86992 37892 ft 438 kts 194°
2026-05-07 17:22 35.62890 -17.88135 37873 ft 437 kts 194°
2026-05-07 17:22 35.56887 -17.89276 37888 ft 436 kts 194°
2026-05-07 17:23 35.50899 -17.90412 37898 ft 435 kts 194°
2026-05-07 17:23 35.44948 -17.91540 37902 ft 436 kts 194°
2026-05-07 17:24 35.38953 -17.92675 37879 ft 436 kts 194°
2026-05-07 17:24 35.32971 -17.93805 37901 ft 435 kts 194°
2026-05-07 17:25 35.26984 -17.94932 37912 ft 435 kts 194°
2026-05-07 17:25 35.20998 -17.96059 37907 ft 436 kts 194°
2026-05-07 17:26 35.15004 -17.97186 37914 ft 436 kts 194°
2026-05-07 17:26 35.09017 -17.98310 37913 ft 435 kts 195°
2026-05-07 17:27 35.03014 -17.99436 37919 ft 437 kts 194°
2026-05-07 17:27 34.96962 -18.00346 37921 ft 442 kts 189°
2026-05-07 17:28 34.90802 -18.00716 37922 ft 444 kts 188°
2026-05-07 17:28 34.84622 -18.01034 37917 ft 445 kts 189°
2026-05-07 17:29 34.78435 -18.01399 37918 ft 445 kts 189°
2026-05-07 17:29 34.72240 -18.01794 37919 ft 446 kts 189°
2026-05-07 17:30 34.66038 -18.02195 37933 ft 446 kts 189°
2026-05-07 17:30 34.59837 -18.02598 37918 ft 446 kts 189°
2026-05-07 17:31 34.53636 -18.02998 37927 ft 446 kts 189°
2026-05-07 17:31 34.47441 -18.03394 37926 ft 445 kts 189°
2026-05-07 17:32 34.41260 -18.03791 37941 ft 444 kts 189°
2026-05-07 17:32 34.36133 -18.04119 37923 ft 444 kts 189°
2026-05-07 17:33 34.28920 -18.04581 37934 ft 444 kts 189°
2026-05-07 17:33 34.22754 -18.04975 37933 ft 444 kts 189°
2026-05-07 17:34 34.16579 -18.05369 37940 ft 444 kts 189°
2026-05-07 17:34 34.10404 -18.05764 37935 ft 444 kts 190°
2026-05-07 17:35 34.04216 -18.06157 37943 ft 446 kts 190°
2026-05-07 17:35 33.98013 -18.06550 37945 ft 447 kts 190°
2026-05-07 17:36 33.91734 -18.05938 37953 ft 464 kts 172°
2026-05-07 17:36 33.88658 -18.04683 37908 ft 473 kts 161°
2026-05-07 17:36 33.85705 -18.02914 37969 ft 475 kts 159°
2026-05-07 17:37 33.79850 -17.99196 37955 ft 476 kts 158°
2026-05-07 17:37 33.73982 -17.95479 37947 ft 477 kts 158°
2026-05-07 17:38 33.68064 -17.91802 38100 ft 481 kts 159°
2026-05-07 17:38 33.65089 -17.89968 38312 ft 480 kts 159°
2026-05-07 17:38 33.62123 -17.88141 38546 ft 479 kts 159°
2026-05-07 17:39 33.59155 -17.86316 38712 ft 479 kts 159°
2026-05-07 17:39 33.56185 -17.84491 38851 ft 479 kts 159°
2026-05-07 17:39 33.53259 -17.82695 38955 ft 480 kts 159°
2026-05-07 17:39 33.50277 -17.80869 38952 ft 482 kts 159°
2026-05-07 17:40 33.44321 -17.77221 38962 ft 480 kts 159°
2026-05-07 17:40 33.38403 -17.73597 38977 ft 476 kts 159°
2026-05-07 17:41 33.32520 -17.70001 38968 ft 473 kts 159°
2026-05-07 17:41 33.26669 -17.66433 38966 ft 471 kts 159°
2026-05-07 17:42 33.20849 -17.62888 38966 ft 468 kts 159°
2026-05-07 17:42 33.15050 -17.59363 38975 ft 467 kts 160°
2026-05-07 17:43 33.09251 -17.55844 38981 ft 468 kts 160°
2026-05-07 17:43 33.03439 -17.52322 38988 ft 470 kts 160°
2026-05-07 17:44 32.97590 -17.48783 38993 ft 472 kts 160°
2026-05-07 17:44 32.91719 -17.45232 38988 ft 475 kts 160°
2026-05-07 17:45 32.85810 -17.41665 38995 ft 478 kts 160°
2026-05-07 17:45 32.79872 -17.38086 39006 ft 477 kts 160°
2026-05-07 17:46 32.74033 -17.34565 38974 ft 465 kts 160°
2026-05-07 17:46 32.68278 -17.31106 38986 ft 463 kts 160°
2026-05-07 17:47 32.62524 -17.27658 38990 ft 464 kts 160°
2026-05-07 17:47 32.56754 -17.24204 39002 ft 466 kts 160°
2026-05-07 17:48 32.50993 -17.20759 39001 ft 468 kts 160°
2026-05-07 17:48 32.45163 -17.17277 38986 ft 470 kts 161°
2026-05-07 17:49 32.39302 -17.13779 38992 ft 473 kts 161°
2026-05-07 17:49 32.33414 -17.10273 38994 ft 475 kts 161°
2026-05-07 17:50 32.27490 -17.06749 39003 ft 477 kts 161°
2026-05-07 17:50 32.21551 -17.03221 39002 ft 476 kts 161°
2026-05-07 17:51 32.16634 -17.00297 38987 ft 468 kts 161°
2026-05-07 17:51 32.09905 -16.96308 39007 ft 465 kts 161°
2026-05-07 17:52 32.05104 -16.93473 38999 ft 464 kts 161°
2026-05-07 17:52 31.99338 -16.90070 38972 ft 464 kts 161°
2026-05-07 17:53 31.93570 -16.86669 38994 ft 464 kts 161°
2026-05-07 17:53 31.87783 -16.83262 39006 ft 466 kts 161°
2026-05-07 17:54 31.81969 -16.79843 39006 ft 468 kts 161°
2026-05-07 17:54 31.76123 -16.76409 38960 ft 471 kts 161°
2026-05-07 17:55 31.70261 -16.72970 38999 ft 472 kts 162°
2026-05-07 17:55 31.64370 -16.69520 39000 ft 474 kts 162°
2026-05-07 17:56 31.58464 -16.66064 38998 ft 475 kts 162°
2026-05-07 17:56 31.52543 -16.62604 39001 ft 475 kts 162°
2026-05-07 17:57 31.47627 -16.59735 38999 ft 474 kts 163°
2026-05-07 17:57 31.40584 -16.56591 39015 ft 450 kts 181°
2026-05-07 17:58 31.37464 -16.56213 39015 ft 438 kts 189°
2026-05-07 17:58 31.34519 -16.56395 39009 ft 426 kts 197°
2026-05-07 17:58 31.28640 -16.57229 39007 ft 426 kts 197°
2026-05-07 17:59 31.22762 -16.58049 38974 ft 424 kts 199°
2026-05-07 17:59 31.16906 -16.58835 38997 ft 423 kts 198°
2026-05-07 18:00 31.11060 -16.59607 39005 ft 422 kts 198°
2026-05-07 18:00 31.05227 -16.60373 39009 ft 421 kts 198°
2026-05-07 18:01 30.99410 -16.61135 39008 ft 420 kts 198°
2026-05-07 18:01 30.93606 -16.61894 39007 ft 419 kts 199°
2026-05-07 18:02 30.84916 -16.63032 39011 ft 419 kts 199°
2026-05-07 18:03 30.79124 -16.63789 39010 ft 419 kts 199°
2026-05-07 18:03 30.73326 -16.64547 39012 ft 420 kts 199°
2026-05-07 18:04 30.67521 -16.65303 38985 ft 419 kts 200°
2026-05-07 18:04 30.61756 -16.66053 39004 ft 420 kts 200°
2026-05-07 18:05 30.55939 -16.66810 39017 ft 421 kts 200°
2026-05-07 18:05 30.50104 -16.67569 39012 ft 423 kts 200°
2026-05-07 18:06 30.44209 -16.68334 39014 ft 424 kts 200°
2026-05-07 18:06 30.38394 -16.69085 39010 ft 423 kts 199°
2026-05-07 18:07 30.32535 -16.69843 39013 ft 424 kts 199°
2026-05-07 18:07 30.26674 -16.70601 39008 ft 424 kts 200°
2026-05-07 18:08 30.20803 -16.71358 39016 ft 425 kts 200°
2026-05-07 18:08 30.14922 -16.72115 38948 ft 425 kts 199°
2026-05-07 18:09 30.09050 -16.72870 39004 ft 424 kts 199°
2026-05-07 18:09 30.03184 -16.73623 39014 ft 424 kts 199°
2026-05-07 18:10 29.97327 -16.74376 39010 ft 424 kts 199°
2026-05-07 18:10 29.91497 -16.75117 38875 ft 414 kts 199°
2026-05-07 18:10 29.88653 -16.75473 38460 ft 410 kts 200°
2026-05-07 18:11 29.85823 -16.75835 37838 ft 409 kts 199°
2026-05-07 18:11 29.83952 -16.76076 37500 ft 408 kts 199°
2026-05-07 18:11 29.80204 -16.76558 36945 ft 402 kts 199°
2026-05-07 18:11 29.77472 -16.77021 36571 ft 391 kts 203°
2026-05-07 18:12 29.74823 -16.77624 36193 ft 385 kts 205°
2026-05-07 18:12 29.72218 -16.78266 35800 ft 381 kts 205°
2026-05-07 18:12 29.69635 -16.78914 35416 ft 378 kts 205°
2026-05-07 18:12 29.67073 -16.79552 35051 ft 375 kts 205°
2026-05-07 18:13 29.64529 -16.80177 34692 ft 372 kts 205°
2026-05-07 18:13 29.62008 -16.80789 34292 ft 370 kts 205°
2026-05-07 18:13 29.59476 -16.81404 33674 ft 373 kts 204°
2026-05-07 18:13 29.56931 -16.82017 33184 ft 373 kts 204°
2026-05-07 18:14 29.54405 -16.82618 32807 ft 369 kts 204°
2026-05-07 18:14 29.51906 -16.83210 32435 ft 365 kts 204°
2026-05-07 18:14 29.49424 -16.83797 32037 ft 363 kts 204°
2026-05-07 18:14 29.46952 -16.84384 31514 ft 364 kts 204°
2026-05-07 18:15 29.44469 -16.84977 31008 ft 365 kts 204°
2026-05-07 18:15 29.41989 -16.85565 30611 ft 363 kts 204°
2026-05-07 18:15 29.39530 -16.86146 30256 ft 359 kts 204°
2026-05-07 18:15 29.37091 -16.86721 29856 ft 356 kts 204°
2026-05-07 18:16 29.34659 -16.87297 29174 ft 359 kts 204°
2026-05-07 18:16 29.32181 -16.87892 28209 ft 369 kts 203°
2026-05-07 18:16 29.29636 -16.88506 27110 ft 380 kts 202°
2026-05-07 18:16 29.27011 -16.89135 26380 ft 385 kts 201°
2026-05-07 18:17 29.24391 -16.89748 25878 ft 383 kts 201°
2026-05-07 18:17 29.21794 -16.90352 25386 ft 380 kts 201°
2026-05-07 18:17 29.19212 -16.90955 24886 ft 378 kts 200°
2026-05-07 18:17 29.16645 -16.91555 24401 ft 375 kts 200°
2026-05-07 18:18 29.14037 -16.91943 23927 ft 381 kts 193°
2026-05-07 18:18 29.11398 -16.92097 23466 ft 379 kts 191°
2026-05-07 18:18 29.08769 -16.92209 22925 ft 377 kts 191°
2026-05-07 18:18 29.06141 -16.92316 22226 ft 379 kts 191°
2026-05-07 18:19 29.03499 -16.92435 21461 ft 382 kts 191°
2026-05-07 18:19 29.00826 -16.92566 20623 ft 387 kts 190°
2026-05-07 18:19 28.98128 -16.92705 20005 ft 387 kts 190°
2026-05-07 18:19 28.95459 -16.92842 19596 ft 381 kts 190°
2026-05-07 18:20 28.92823 -16.92980 19170 ft 376 kts 190°
2026-05-07 18:20 28.90236 -16.93117 18880 ft 368 kts 190°
2026-05-07 18:20 28.87711 -16.93251 18655 ft 359 kts 190°
2026-05-07 18:20 28.85272 -16.93382 18414 ft 352 kts 190°
2026-05-07 18:21 28.82823 -16.93516 18168 ft 344 kts 190°
2026-05-07 18:21 28.80490 -16.93644 17900 ft 337 kts 191°
2026-05-07 18:21 28.78166 -16.93772 17633 ft 331 kts 191°
2026-05-07 18:21 28.75882 -16.93898 17368 ft 326 kts 191°
2026-05-07 18:22 28.73619 -16.94024 17023 ft 325 kts 190°
2026-05-07 18:22 28.72094 -16.94110 16824 ft 325 kts 190°
2026-05-07 18:22 28.69119 -16.94276 16424 ft 322 kts 190°
2026-05-07 18:22 28.66887 -16.94400 16124 ft 320 kts 190°
2026-05-07 18:23 28.64668 -16.94522 15828 ft 318 kts 190°
2026-05-07 18:23 28.62461 -16.94644 15542 ft 316 kts 190°
2026-05-07 18:23 28.60273 -16.94763 15242 ft 314 kts 190°
2026-05-07 18:23 28.58080 -16.94885 14811 ft 317 kts 190°
2026-05-07 18:24 28.55873 -16.95008 14432 ft 318 kts 189°
2026-05-07 18:24 28.53666 -16.95129 14097 ft 317 kts 189°
2026-05-07 18:24 28.51464 -16.95249 13766 ft 316 kts 189°
2026-05-07 18:24 28.49270 -16.95369 13405 ft 316 kts 189°
2026-05-07 18:25 28.47085 -16.95489 13073 ft 314 kts 189°
2026-05-07 18:25 28.44910 -16.95607 12729 ft 312 kts 189°
2026-05-07 18:25 28.42743 -16.95725 12390 ft 311 kts 188°
2026-05-07 18:25 28.40587 -16.95842 12053 ft 310 kts 188°
2026-05-07 18:26 28.38431 -16.95959 11696 ft 309 kts 188°
2026-05-07 18:26 28.36284 -16.96077 11376 ft 308 kts 188°
2026-05-07 18:26 28.34145 -16.96193 11044 ft 307 kts 188°
2026-05-07 18:26 28.32011 -16.96309 10728 ft 306 kts 187°
2026-05-07 18:27 28.29890 -16.96424 10405 ft 305 kts 187°
2026-05-07 18:27 28.27766 -16.96540 10076 ft 305 kts 187°
2026-05-07 18:27 28.25650 -16.96655 9747 ft 304 kts 187°
2026-05-07 18:27 28.24253 -16.96731 9529 ft 303 kts 187°
2026-05-07 18:28 28.21475 -16.96882 9138 ft 300 kts 187°
2026-05-07 18:28 28.19371 -16.96996 8835 ft 298 kts 187°
2026-05-07 18:28 28.17330 -16.96861 8478 ft 303 kts 166°
2026-05-07 18:28 28.15462 -16.95698 8197 ft 303 kts 141°
2026-05-07 18:29 28.13963 -16.94121 7983 ft 294 kts 136°
2026-05-07 18:29 28.12528 -16.92514 7678 ft 287 kts 136°
2026-05-07 18:29 28.11129 -16.90938 7356 ft 281 kts 136°
2026-05-07 18:29 28.09750 -16.89397 7035 ft 275 kts 136°
2026-05-07 18:30 28.08396 -16.87895 6719 ft 270 kts 137°
2026-05-07 18:30 28.07064 -16.86425 6405 ft 265 kts 137°
2026-05-07 18:30 28.05756 -16.84988 6073 ft 259 kts 137°
2026-05-07 18:30 28.04486 -16.83594 5770 ft 250 kts 137°
2026-05-07 18:31 28.03246 -16.82237 5370 ft 245 kts 136°
2026-05-07 18:31 28.02041 -16.80919 5015 ft 238 kts 136°
2026-05-07 18:31 28.00870 -16.79639 4678 ft 231 kts 136°
2026-05-07 18:31 27.99735 -16.78401 4335 ft 224 kts 136°
2026-05-07 18:32 27.98650 -16.77146 3985 ft 220 kts 125°
2026-05-07 18:32 27.98208 -16.75553 3540 ft 215 kts 81°
2026-05-07 18:32 27.98683 -16.73995 3137 ft 209 kts 65°
2026-05-07 18:32 27.99208 -16.72463 2748 ft 209 kts 69°
2026-05-07 18:33 27.99705 -16.70956 2460 ft 200 kts 68°
2026-05-07 18:33 28.00194 -16.69530 2202 ft 189 kts 69°
2026-05-07 18:33 28.00660 -16.68186 1949 ft 179 kts 69°
2026-05-07 18:33 28.01101 -16.66916 1721 ft 168 kts 69°
2026-05-07 18:34 28.01505 -16.65749 1496 ft 153 kts 70°
2026-05-07 18:34 28.01880 -16.64665 1294 ft 146 kts 70°
2026-05-07 18:34 28.02243 -16.63616 1135 ft 142 kts 70°
2026-05-07 18:34 28.02610 -16.62556 925 ft 145 kts 69°
2026-05-07 18:35 28.02977 -16.61498 721 ft 143 kts 70°
2026-05-07 18:35 28.03328 -16.60484 564 ft 137 kts 70°
2026-05-07 18:35 28.03677 -16.59462 349 ft 138 kts 71°
2026-05-07 18:35 28.04033 -16.58443 212 ft 140 kts 70°
2026-05-07 18:36 28.04362 -16.57499 189 ft 114 kts 68°
2026-05-07 18:36 28.04497 -16.57107 201 ft 35 kts 68°
2026-05-07 18:36 28.04632 -16.56904 197 ft 31 kts 49°
2026-05-07 18:36 28.04740 -16.56772 213 ft 11 kts 35°
2026-05-07 18:37 28.04794 -16.56800 218 ft 11 kts 269°
2026-05-07 18:37 28.04763 -16.56897 214 ft 14 kts 249°
2026-05-07 18:37 28.04724 -16.57009 217 ft 17 kts 249°